Home   Weather   Duluth   Past weeks

Flag for USA Past Weather in Duluth, Minnesota, USA — Yesterday and Last 2 Weeks

Now
34 °F

Fog.


Feels Like: 34 °F
Forecast: 18 / 33 °F
Wind: No wind

Location: Sky Harbor Airport

Current Time: Jan 17, 2017 at 3:26:36 pm

Latest Report: Jan 17, 2017 at 2:54 pm


Visibility: 5 mi

Pressure: 29.94 "Hg

Humidity: 81%

Dew Point: 28 °F

Location of DuluthLocation

Past Weather in Duluth — Graph

°F

Duluth Temperature Yesterday

Maximum temperature yesterday: 34 °F (at 2:54 pm)
Minimum temperature yesterday: 16 °F (at 5:54 am)
Average temperature yesterday: 23 °F

High & Low Weather Summary for the Past Weeks

 TemperatureHumidityPressure
High34 °F (Jan 2, 4:54 pm)93% (Jan 3, 1:14 am)30.86 "Hg (Jan 3, 1:14 am)
Low-15 °F (Jan 13, 7:34 am)43% (Jan 13, 5:53 pm)29.28 "Hg (Jan 10, 12:54 pm)
Average9 °F73%30.16 "Hg
* Reported Jan 2 1:14 pm — Jan 17 1:54 pm, Duluth, Weather by CustomWeather, © 2017

Note: Actual official high and low records may vary slightly from our data, if they occured in-between our weather recording intervals... More about our weather records

Advertising

Duluth Weather History for the Previous 24 Hours

Scroll right to see more
 ConditionsComfort  
Time TempWeatherWind HumidityBarometerVisibility
1:54 pm
Tue, Jan 17
32 °FIce fog.No wind87%29.94 "Hg4 mi
1:34 pm32 °FIce fog.No wind87%29.94 "Hg4 mi
12:54 pm32 °FIce fog.No wind87%29.94 "Hg5 mi
12:13 pm32 °FIce fog.No wind87%29.95 "Hg5 mi
11:34 am30 °FIce fog.No wind86%29.97 "Hg4 mi
10:54 am30 °FIce fog.No wind86%29.97 "Hg5 mi
10:14 am28 °FIce fog.No wind86%29.98 "Hg5 mi
9:52 am27 °FIce fog.No wind86%29.99 "Hg5 mi
9:33 am27 °FIce fog.No wind86%29.99 "Hg5 mi
8:54 am25 °FLow clouds.No wind86%29.98 "Hg7 mi
8:33 am25 °FLow clouds.No wind86%29.98 "Hg7 mi
7:54 am25 °FScattered clouds.No wind86%29.97 "Hg7 mi
7:14 am25 °FLow clouds.No wind86%29.96 "Hg7 mi
6:54 am25 °FLow clouds.No wind80%29.97 "Hg10 mi
6:14 am23 °FPartly cloudy.No wind86%29.96 "Hg10 mi
5:54 am25 °FPassing clouds.No wind80%29.97 "Hg10 mi
5:14 am23 °FPassing clouds.No wind86%29.97 "Hg10 mi
4:54 am23 °FPassing clouds.No wind86%29.98 "Hg10 mi
4:14 am23 °FClear.No wind86%29.99 "Hg10 mi
3:34 am21 °FClear.No wind93%30.01 "Hg10 mi
2:53 am21 °FClear.No wind93%30.01 "Hg10 mi
2:14 am23 °FClear.No wind86%30.01 "Hg10 mi
1:53 am21 °FClear.No wind93%30.01 "Hg10 mi
1:14 am21 °FClear.No wind93%30.02 "Hg10 mi
12:54 am21 °FClear.No wind93%30.02 "Hg7 mi
12:34 am21 °FClear.No wind93%30.02 "Hg7 mi
11:54 pm
Mon, Jan 16
21 °FClear.No wind93%30.02 "Hg7 mi
11:34 pm21 °FClear.No wind93%30.02 "Hg7 mi
11:13 pm21 °FClear.No wind86%30.02 "Hg7 mi
10:33 pm25 °FClear.No wind80%30.02 "Hg10 mi
10:14 pm23 °FClear.No wind86%30.03 "Hg7 mi
9:53 pm23 °FClear.No wind86%30.03 "Hg10 mi
9:14 pm23 °FClear.No wind86%30.04 "Hg10 mi
8:53 pm25 °FClear.No wind80%30.04 "Hg10 mi
8:34 pm23 °FClear.No wind86%30.05 "Hg10 mi
7:53 pm25 °FClear.No wind80%30.06 "Hg10 mi
7:14 pm27 °FClear.No wind74%30.07 "Hg10 mi
6:53 pm27 °FClear.No wind74%30.07 "Hg10 mi
6:14 pm25 °FClear.No wind80%30.07 "Hg10 mi
5:34 pm28 °FClear.No wind69%30.08 "Hg10 mi
4:54 pm30 °FClear.No wind69%30.08 "Hg10 mi
4:33 pm30 °FSunny.No wind64%30.08 "Hg10 mi
3:54 pm34 °FSunny.No wind60%30.08 "Hg10 mi
3:33 pm32 °FSunny.No wind60%30.08 "Hg10 mi
Weather by CustomWeather, © 2017

See weather overviewHow to use our weather pages